STARLINK-32876, 63151

Orbit data source: Space-Track

STARLINK-32876, 63151 is a payload satellite owned by SpaceX/Seattle (US) in LEO that was launched on Mon, 03 Mar 2025 UTC via an FALCON 9 launch vehicle from the Air Force Eastern Test Range (AFETR). Payload-class satellites include a variety of spacecraft equipped with specific instruments for various scientific and technological missions. These include communications satellites like Starlink; space stations such as the ISS; scientific satellites like the Hubble; Earth observation satellites from companies like Planet Labs, Umbra, and HawkEye 360; GPS; miniature CubeSats for education and research; and military/defense satellites.

Loading next visibility...
Identifier
63151, 2025-043V
Orbit
LEO
Last TLE update
1 day ago
Origin
Manufacturer
SpaceX/Seattle
Mission
Operational Commercial Communications
Bus & Motor
STARLINK V2M, Unknown motor
Mass
730 kg wet, ~700 kg dry
Launch date (UTC)
2025-03-03 (2 months ago)
Launch vehicle
FALCON 9
Launch site
Air Force Eastern Test Range (AFETR)
Object type
Payload
Rocket body
Debris
Shape & HBR
Box + 2 Pan, 29 m
Radar Cross Section
33.884 m², Large (>1 m²)

Expand to show TLE details & history

TLE from 1 day ago
0 STARLINK-32876
1 63151U 25043V   25118.98182420  .00000464  00000-0  18384-4 0  9993
2 63151  43.0020 358.5751 0001562 275.2204  84.8474 15.40681920  9805
Epoch: 2025-04-28T23:33Z
Definitive object data (Epoch: 2025-04-28T23:33:49.61Z)
Latitude
-0.00005°
Longitude
147.93029°
Altitude
443.774 km
Speed
7.648 km/s
True Right ascension
23h 54m 18s
True Declination
0° 00' 00"
Sunlit
Object was in daylight at TLE epoch
Visualization TLE readout
Latitude
13.82203°
Longitude
-55.66523°
Altitude
443.732 km
Speed
7.649 km/s
Apparent Right ascension
08h 32m 56s
Apparent Declination
-14° 02' 11"
Sunlit
Object is in full shadow
Visualization observer readout
Local Sidereal Time
18:02:59
Azimuth
297.542° NW
Elevation
-48.248°
Doppler factor
1
Orbital elements
Apogee altitude
447.117 km
Perigee altitude
444.985 km
Semi-major axis
6,824.188 km
Eccentricity
0.0001562
Inclination
43.002°
RAAN
358.5751°
Arg. of periapsis
275.2204°
True anomaly
84.86523°
Mean anomaly
84.8474°
Eccentric anomaly
84.85631°
Mean motion
3.85005 °/min
BSTAR
0.000018384
Orbital period
93.51 mins
Loading maneuver chart data...
Loading SW <> Apogee altitude chart data...
Loading historical data...
Loading historical data...
Loading historical data...
Loading historical data...
Loading historical data...
Loading historical data...
Loading historical data...

STARLINK-32876 Visibility forecast

Observer location: undefined°, undefined°

Span
Click to sort rows by Start time (UTC) header in descending order
Start Az.
Max El. time (UTC)
Max El. Az.
Max El.
End time (UTC)
End Az.
5 mins2025-04-30 19:22:58.424Z231.613° WSW2025-04-30 19:24:58.424Z122.795° SE41.166°2025-04-30 19:27:58.424Z75.375° E
5 mins2025-04-30 21:00:58.424Z286.765° WNW2025-04-30 21:02:58.424Z5.561° NNE38.003°2025-04-30 21:05:58.424Z71.099° E
5 mins2025-04-30 22:38:58.424Z294.675° NW2025-04-30 22:40:58.424Z353.389° N41.52°2025-04-30 22:43:58.424Z92.688° ESE
5 mins2025-05-01 00:16:58.424Z268.677° W2025-05-01 00:18:58.424Z215.862° SW31.425°2025-05-01 00:21:58.424Z142.271° SSE
|